Regional Weather Roundup
Issued by NWS

Home | Current Version | Previous Version | Graphics & Text | Print | Product List | Glossary On
Versions: 1 2 3 4 5 6 7 8 9 10 11 12 13 14 15 16 17 18 19 20 21 22 23 24 25 26 27 28 29 30 31 32 33 34 35 36 37 38 39 40 41 42 43 44 45 46 47 48 49 50
000
ASUS44 KMEG 280500
RWRTN
TENNESSEE HOURLY STATE WEATHER ROUNDUP
NATIONAL WEATHER SERVICE MEMPHIS TN
1100 PM CST FRI FEB 27 2015

TNZ002-004-019-021-049-052-054-088>092-280600-
WEST TENNESSEE

CITY           SKY/WX    TMP DP  RH WIND       PRES   REMARKS
MEMPHIS INTL   CLOUDY    28  13  53 NE10      30.54S WCI  19
NWS MEMPHIS      N/A     27 N/A N/A MISG        N/A
JACKSON        CLOUDY    27  11  51 NE13      30.56F WCI  16
DYERSBURG      MOCLDY    25   5  42 E10       30.58F WCI  15
UNION CITY     CLOUDY    21  12  68 NE9       30.57F WCI  11
PARIS          CLOUDY    21   9  58 E8        30.58F WCI  12
LEXINGTON      CLOUDY    25   9  50 NE9       30.55S WCI  15
SAVANNAH       CLOUDY    28  10  47 NE6       30.55S WCI  22
$$

TNZ008-025-027-028-033-062-065-066-280600-
NORTH MIDDLE TENNESSEE

CITY           SKY/WX    TMP DP  RH WIND       PRES   REMARKS
NASHVILLE      CLOUDY    25   7  46 NE10      30.59S WCI  15
CLARKSVILLE    CLOUDY    23  12  62 NE6       30.60F WCI  16
COOKEVILLE     PTCLDY    21  10  63 NE3       30.53F
CROSSVILLE     MOCLDY    20   8  60 NE8       30.50R WCI  10
$$

TNZ061-075-076-078-094-096-097-280600-
SOUTH MIDDLE TENNESSEE

CITY           SKY/WX    TMP DP  RH WIND       PRES   REMARKS
FAYETTEVILLE   MOCLDY    25  10  54 NE10        N/A  WCI  15
TULLAHOMA      CLEAR     25   9  50 NE8       30.52F WCI  16
WINCHESTER     MOCLDY    27  12  54 VRB5      30.53S WCI  21
COLUMBIA         N/A     25  10  54 NE8       30.54S WCI  16
SHELBYVILLE    CLOUDY    25  10  54 NE8       30.56S WCI  16
$$

TNZ017-018-042-046-047-280600-
NORTHEAST TENNESSEE

CITY           SKY/WX    TMP DP  RH WIND       PRES   REMARKS
TRI CITIES     CLEAR     18  12  77 CALM      30.53R
ELIZABETHTON   CLEAR     16  14  93 CALM      30.52R
$$

TNZ012-013-036-069-073-074-280600-
CENTRAL EAST TENNESSEE

CITY           SKY/WX    TMP DP  RH WIND       PRES   REMARKS
KNOXVILLE      MOCLDY    26  12  55 NE6       30.54R WCI  19
OAK RIDGE      PTCLDY    27  10  49 NE6       30.56R WCI  20
GATLINBURG     CLEAR     19  18  93 CALM      30.53F
$$

TNZ083-085-099-280600-
SOUTHEAST TENNESSEE

CITY           SKY/WX    TMP DP  RH WIND       PRES   REMARKS
CHATTANOOGA    MOCLDY    32  13  45 N12       30.53S WCI  23
$$

SKY/WX REPORTED AS FAIR MEANS FEW OR NO CLOUDS BELOW
12 THOUSAND FEET.



USA.gov is the U.S. government's official web portal to all federal, state and local government web resources and services.